Theta_e
301 301 302 303 304 305 302 300 296 313 316 303 304 297 296 296 301 300 298 298 296 296 296 295 295 295 297 301 302 298 301 299 293 293 295 297 298 297 298 295 291 292 291 290
300 300 301 302 304 304 301 296 299 313 309 293 298 301 297 297 300 298 297 296 298 299 297 294 296 297 299 300 301 300 301 298 291 290 294 295 294 296 296 296 296 291 289 291
300 300 300 302 303 303 302 296 287 300 303 302 299 298 298 295 300 298 299 297 299 298 296 298 296 296 298 300 301 299 302 298 295 290 292 296 294 293 294 297 293 292 292 294
300 300 300 301 302 303 301 297 291 298 288 293 297 299 299 297 295 300 298 297 297 297 295 296 296 298 298 299 299 301 302 296 295 294 295 294 294 292 293 292 295 291 292 293
301 300 299 300 302 302 298 292 291 294 293 298 296 297 297 298 297 299 294 293 296 299 297 298 296 299 299 298 300 301 301 295 296 293 294 295 293 295 294 295 295 295 296 295
301 300 300 301 301 302 296 297 298 293 292 294 295 295 296 297 301 303 303 298 297 296 299 303 304 304 303 303 301 300 299 298 294 290 292 291 290 295 296 297 297 297 294 297
301 301 301 301 301 302 300 300 298 291 288 292 294 295 297 298 302 300 304 302 297 298 304 305 305 303 302 301 300 302 298 298 296 292 291 286 296 298 297 297 297 299 298 298
301 301 301 301 301 301 301 301 297 293 286 291 291 295 295 299 301 301 299 302 302 304 301 299 295 296 295 295 298 298 300 298 292 291 290 294 296 296 295 294 296 298 297 298
301 301 301 301 301 301 302 301 302 295 288 289 292 290 295 295 299 299 301 303 305 303 296 297 291 289 293 291 293 297 297 299 297 291 288 287 296 296 298 297 292 298 299 298
301 300 301 301 301 301 301 299 304 296 289 292 292 291 290 298 299 297 300 298 300 300 295 294 292 291 295 290 290 291 293 294 291 291 290 294 300 297 298 290 295 300 300 300
300 300 300 300 301 300 301 298 304 298 291 293 295 295 292 291 292 295 300 298 293 293 289 293 296 295 295 294 296 294 293 292 290 292 290 287 301 296 294 301 302 302 301 301
300 299 299 300 300 300 301 295 302 303 294 294 298 299 300 299 296 291 298 302 297 299 294 295 297 295 295 296 291 296 293 298 296 296 296 302 302 301 302 304 302 302 301 300
299 299 299 299 299 300 300 296 300 300 293 293 293 293 298 300 298 298 290 301 302 300 302 301 299 296 299 293 295 297 298 299 299 296 301 300 301 300 302 303 304 303 302 299
298 298 299 299 300 300 300 296 301 299 295 287 290 300 297 302 300 299 298 298 304 303 302 300 300 298 300 298 299 299 299 298 298 298 299 300 301 302 302 302 302 300 300 299
298 298 298 299 299 299 300 298 301 303 295 287 289 297 299 301 305 303 300 301 302 300 300 300 299 301 299 300 300 299 299 299 297 298 304 302 303 304 303 300 299 299 297 295
298 298 298 299 299 300 296 286 299 302 300 291 285 298 298 303 305 303 303 303 304 301 298 300 303 301 301 297 296 302 302 304 306 304 305 303 303 304 303 301 299 298 296 295
298 298 298 299 299 297 290 292 299 301 301 292 287 289 299 302 304 305 303 306 302 301 296 295 301 300 299 299 296 302 303 304 303 303 301 298 300 298 301 299 297 296 295 294
297 298 298 298 299 296 292 298 299 302 296 295 285 288 294 304 298 297 304 298 298 297 297 295 298 299 298 294 300 303 304 303 301 301 300 303 301 299 297 296 294 292 290 290
297 298 298 297 290 291 294 299 300 302 293 287 286 285 287 302 296 298 296 298 291 293 292 294 297 296 294 299 301 302 303 302 301 298 298 297 296 295 293 292 292 290 288 288
298 291 286 285 293 298 300 297 291 291 291 289 287 293 290 297 292 290 290 293 288 287 292 293 290 294 302 303 304 306 305 304 299 294 293 295 293 292 292 292 292 291 289 287
287 286 287 294 298 296 291 286 285 287 284 288 290 291 290 300 290 287 292 289 290 286 289 292 289 290 300 305 304 305 305 302 299 302 300 297 296 293 292 291 291 289 288 287
292 294 297 295 291 287 282 281 285 284 282 290 289 291 293 297 300 292 289 286 289 287 290 288 289 295 302 304 304 304 305 301 300 300 297 297 294 293 292 290 289 288 288 286
296 291 287 286 286 279 277 275 280 282 288 292 292 291 295 296 298 291 286 285 286 292 286 288 292 298 299 302 306 305 303 301 298 296 296 294 292 292 290 288 289 287 285 285
286 283 278 280 278 281 283 283 284 288 291 292 294 292 292 292 289 287 284 288 288 285 284 287 296 296 297 297 300 299 297 295 294 292 291 290 290 289 289 287 286 285 284 284
283 283 277 280 285 289 290 291 290 291 293 292 291 293 291 287 286 285 286 283 284 287 289 295 293 295 295 295 295 295 294 290 291 291 288 286 287 286 284 285 286 285 282 280
285 283 281 285 285 285 286 288 289 295 295 295 292 291 287 285 289 285 286 286 286 293 294 293 290 291 293 293 293 292 291 290 289 287 286 284 282 282 283 283 282 280 280 278
282 281 286 287 287 286 287 289 288 291 289 289 286 285 287 289 288 288 291 290 295 294 289 290 290 291 291 292 291 289 289 288 286 285 284 283 282 281 280 279 280 281 280 279
Wind_Speed
5 5 8 10 11 12 5 3 3 3 1 7 4 6 6 2 6 2 4 3 5 7 8 9 9 9 1 4 8 8 3 2 5 1 2 2 2 4 9 4 5 2 3 4
7 6 6 8 8 6 4 3 4 3 2 7 9 6 4 1 8 4 2 5 7 4 7 6 10 7 3 4 8 10 8 5 3 5 5 3 5 5 3 2 1 8 5 2
8 8 6 6 6 5 4 3 2 2 2 3 8 13 10 7 4 2 6 8 5 6 6 5 5 7 3 3 6 2 4 5 6 5 3 4 4 7 3 3 4 6 11 13
10 10 8 6 5 4 4 2 4 3 3 4 8 10 9 15 10 7 3 9 12 10 7 8 5 7 5 5 6 4 5 6 4 3 1 4 4 5 11 9 13 8 11 10
12 11 10 7 4 3 4 2 3 4 5 7 12 12 15 16 11 8 5 7 13 12 11 9 9 9 8 6 8 7 5 3 5 5 3 5 9 10 11 14 13 14 16 16
14 13 11 8 6 7 3 3 3 2 6 7 9 13 15 7 18 12 13 14 7 9 11 7 3 2 2 2 7 10 7 7 6 3 2 3 8 16 17 12 9 11 10 3
15 14 12 10 8 10 4 3 3 3 5 6 9 7 13 18 13 17 11 8 7 10 7 9 9 9 7 6 6 4 8 8 2 2 3 3 1 2 1 7 7 10 6 4
16 15 14 12 10 10 6 5 4 2 3 8 11 12 13 13 16 15 6 6 4 9 7 6 5 2 2 2 3 4 5 6 3 3 6 9 13 6 6 8 5 5 6 6
17 15 15 13 11 10 7 7 5 4 3 5 4 5 9 10 11 10 8 3 6 7 3 4 6 6 6 7 6 2 5 3 5 4 4 5 3 7 3 3 6 8 6 6
17 16 15 14 12 12 8 4 11 5 5 12 10 5 4 9 7 5 5 5 5 3 2 4 6 8 3 9 10 8 6 4 6 5 6 6 3 9 5 6 3 9 5 6
17 17 16 15 13 14 10 5 9 9 5 12 11 8 6 4 4 5 5 7 1 2 4 5 5 4 7 5 7 8 10 9 5 4 2 9 11 8 6 7 9 9 8 7
18 18 17 16 15 15 14 4 7 7 6 5 6 12 12 9 11 5 7 7 10 8 6 4 4 3 4 7 6 4 8 6 6 10 6 5 15 2 5 8 10 9 10 12
19 19 17 17 16 16 16 3 7 6 6 10 14 14 16 17 15 12 5 4 6 5 3 2 2 9 5 7 6 6 7 6 4 5 11 8 11 5 7 7 8 10 12 16
18 19 17 16 15 15 17 5 7 7 4 6 10 8 16 12 15 21 20 17 6 4 3 4 4 5 4 8 2 11 2 12 9 6 5 5 8 11 11 10 12 15 15 17
18 19 18 16 16 17 10 5 7 9 7 3 5 14 19 17 14 14 21 18 10 2 3 5 7 2 4 1 3 7 8 8 8 6 9 10 6 16 15 16 16 17 18 18
18 18 17 16 16 17 4 2 10 9 6 4 5 5 10 12 15 13 13 10 6 3 6 5 4 3 4 5 7 8 14 10 8 4 9 6 6 14 16 17 18 17 18 18
16 15 15 17 17 10 4 1 3 16 8 3 5 6 4 8 9 7 5 10 3 3 4 4 10 4 4 4 10 8 14 14 8 11 15 9 12 9 15 18 19 18 18 17
15 15 17 14 18 11 4 4 5 8 6 3 4 6 5 7 4 3 4 3 2 2 3 1 3 3 4 8 15 12 11 13 11 12 2 6 14 18 18 19 20 21 19 19
17 16 17 9 2 5 5 10 10 3 1 4 4 5 3 5 1 2 1 3 4 1 3 4 5 7 11 8 16 15 15 16 14 11 11 16 19 21 21 22 21 21 20 19
17 6 2 4 6 13 17 6 6 4 5 4 5 7 7 3 1 0 2 4 4 6 5 5 5 10 17 10 9 13 17 13 20 19 15 16 18 20 22 22 18 19 20 20
3 3 3 4 14 7 4 4 6 6 5 6 7 12 10 5 4 2 4 3 5 6 6 8 5 7 21 22 17 10 12 18 20 10 16 17 21 24 22 21 19 20 21 19
5 6 6 6 5 3 6 7 5 7 8 8 7 14 11 5 3 2 3 4 4 6 8 5 6 7 14 22 21 18 17 18 19 12 17 18 21 21 20 20 21 21 20 19
5 3 4 4 5 8 9 10 6 7 4 4 6 10 8 5 3 3 3 6 3 6 3 6 4 4 7 11 16 21 17 18 17 17 19 21 22 21 21 22 20 22 20 18
3 5 8 7 5 6 5 9 12 9 6 4 9 9 5 3 4 2 7 1 4 4 5 7 4 5 7 10 10 17 20 20 20 21 23 24 22 22 21 19 19 19 20 19
3 4 5 7 4 2 2 1 4 7 8 6 4 4 3 2 2 4 3 2 4 6 6 3 2 4 10 12 14 17 18 17 19 20 21 20 21 20 19 19 19 19 16 16
3 3 3 2 4 5 3 3 5 8 7 7 2 5 5 7 6 6 7 7 7 2 2 3 4 7 10 12 12 14 16 19 19 19 21 20 19 21 20 17 16 15 16 16
4 3 4 3 2 2 3 4 1 6 7 7 2 7 8 3 5 6 6 5 0 3 2 3 5 10 12 13 15 16 18 19 20 21 21 20 20 19 20 20 16 17 16 14
Wind_Direction
268 303 313 323 335 330 302 308 246 48 188 198 190 200 179 274 233 181 240 281 248 219 200 205 215 208 281 168 177 191 146 170 192 168 99 321 280 244 218 210 194 237 301 264
247 272 292 314 330 331 323 294 301 100 286 212 207 178 176 281 236 201 247 234 233 204 206 216 220 194 102 181 197 178 173 192 156 181 180 182 223 188 91 65 122 218 238 231
234 250 272 297 311 297 284 294 281 276 254 322 268 204 198 196 218 241 298 299 228 188 202 205 203 188 152 178 215 83 175 182 213 238 66 114 178 197 185 179 200 228 236 278
228 238 253 269 290 269 266 218 263 332 243 229 240 217 198 198 181 208 202 261 245 215 205 201 204 191 159 170 165 171 211 204 164 168 138 213 223 198 179 199 226 234 260 265
219 231 242 254 263 230 250 209 277 348 310 279 199 229 227 208 208 175 178 237 345 257 233 214 202 189 205 183 174 192 180 192 190 174 195 245 261 242 221 227 244 248 266 273
217 223 228 234 238 206 211 226 235 287 284 246 229 223 220 252 224 206 232 188 302 305 271 300 342 147 115 171 177 184 181 164 183 213 188 273 271 242 233 224 227 241 253 308
214 219 219 224 223 214 234 225 277 239 260 266 244 302 241 224 218 239 206 169 191 349 285 123 104 93 101 128 102 181 174 173 199 151 165 235 9 140 358 217 220 212 238 263
218 216 217 221 219 221 222 227 244 214 290 286 280 282 261 272 228 222 233 162 128 358 294 241 145 113 134 102 73 138 231 160 126 172 225 291 269 196 208 205 204 214 202 151
218 217 214 215 219 220 222 226 227 240 268 248 294 314 310 258 239 195 209 126 54 33 311 265 181 182 168 188 157 112 141 236 221 171 207 241 75 143 154 193 213 163 160 156
216 218 218 216 221 224 216 225 212 226 234 261 276 268 323 335 257 201 148 134 156 155 221 259 201 204 207 172 180 170 169 164 181 192 234 268 177 149 163 234 93 147 144 139
216 214 215 215 219 225 214 227 213 213 243 260 258 254 268 324 288 240 128 129 170 154 161 265 206 212 185 183 169 182 174 160 174 179 188 254 151 139 221 98 128 136 134 130
214 211 211 216 220 226 207 232 215 220 237 281 308 271 270 264 246 291 298 218 153 171 178 217 304 208 173 170 198 194 204 200 172 194 207 110 178 330 123 150 146 147 138 134
212 207 207 213 223 222 202 190 203 205 246 267 254 258 255 224 201 223 255 270 160 175 322 355 265 254 180 180 211 178 203 183 190 174 193 187 184 158 153 152 139 137 138 140
210 206 207 214 219 216 189 195 211 224 250 264 271 254 233 225 192 197 213 251 313 115 149 209 234 260 241 210 246 210 154 164 183 237 174 171 202 194 165 137 129 130 136 143
204 205 210 213 213 200 189 191 227 218 236 293 298 294 264 240 227 211 211 233 226 212 212 203 206 244 213 221 213 198 193 170 187 213 195 211 180 184 163 153 149 145 141 139
202 204 210 210 197 186 141 208 223 213 214 266 275 314 273 222 217 215 214 217 213 181 184 245 234 143 214 226 211 207 190 200 207 168 119 93 119 143 162 149 146 145 142 142
198 202 209 194 183 164 190 252 97 175 173 240 275 261 227 225 213 220 207 218 187 188 159 211 240 208 202 241 236 193 196 198 156 134 121 117 154 158 147 140 136 136 132 134
195 200 187 192 186 153 238 211 174 161 182 214 247 259 259 176 193 189 158 167 149 211 174 334 224 158 222 243 230 218 190 175 166 171 156 147 131 137 138 137 139 138 138 137
190 192 187 160 110 172 184 152 147 104 67 221 222 239 232 162 193 158 233 162 183 60 184 183 195 217 220 217 208 197 172 175 172 150 135 139 148 147 146 148 149 142 143 142
171 102 162 148 178 118 119 159 168 179 190 234 237 224 237 188 76 303 103 208 162 179 204 125 216 243 229 220 222 202 191 179 148 144 151 152 155 158 158 159 151 146 144 143
75 153 155 96 138 157 185 172 188 190 225 210 213 222 228 186 210 184 246 229 166 187 177 196 212 228 220 220 218 210 179 173 180 183 168 169 162 158 156 154 147 143 145 144
179 122 119 143 184 162 174 188 199 208 215 174 213 200 207 195 159 168 249 239 184 187 137 184 236 201 213 202 203 196 183 178 178 162 153 152 153 151 148 146 143 143 137 136
172 78 145 191 170 186 198 185 199 206 188 203 189 181 177 161 181 175 248 238 147 137 187 224 227 194 192 201 201 190 170 168 155 143 136 141 141 143 146 143 140 136 138 136
123 161 162 205 176 228 203 209 212 219 231 254 199 191 190 139 159 149 246 116 134 205 227 233 233 188 167 152 152 147 155 149 143 140 138 138 139 142 141 136 134 136 137 136
118 187 204 197 218 121 126 338 298 272 268 235 266 174 143 150 175 206 220 202 197 218 227 223 35 128 157 144 156 153 147 140 137 138 136 137 137 137 131 135 136 129 122 127
158 174 184 185 222 195 214 24 346 313 282 242 130 225 169 217 203 197 212 191 215 237 259 61 97 134 136 131 137 137 138 136 132 130 131 128 132 132 127 113 116 123 126 124
173 190 233 241 275 199 210 211 278 322 292 212 199 229 183 178 224 192 203 217 27 74 104 90 138 140 129 131 134 136 134 130 131 128 128 127 122 119 116 119 123 126 119 117